NOAA 16 DEB, 41223

Orbit data source: Space-Track

NOAA 16 DEB, 41223 is space debris in SSO originally from a launch on Thu, 21 Sep 2000 UTC launched from the Air Force Western Test Range (AFWTR). Debris objects in space refer to the collection of defunct objects orbiting the Earth. Examples of debris include non-operational satellites, rocket bodies, and fragments generated from explosions, collisions, or faulty payload assembly.

Loading next visibility...
Identifier
41223, 2000-055EC
Orbit
SSO
Country
Flag of USUS
Related business
Manufacturer
Unknown
Mission
Spacecraft
Bus & Motor
Unknown
Mass
Unknown
Launch date (UTC)
2000-09-21 (26 years ago)
Launch vehicle
Unknown
Launch site
Air Force Western Test Range (AFWTR)
Object type
Payload
Rocket body
Debris
Shape & HBR
Unknown shape, 0.1 m
Radar Cross Section
Medium (>0.1 m² and <1 m²)

Expand to show TLE details & history
Last TLE update: 1 day ago

TLE from 1 day ago
0 NOAA 16 DEB
1 41223U 00055EC  26171.42047086  .00001231  00000-0  66249-3 0  9997
2 41223  98.6578 168.9132 0029812 238.1289 121.6983 14.14401624540468
Epoch: 2026-06-20T10:05Z
TLE epoch observation values (Epoch: 2026-06-20T10:05:28.682Z)
Latitude
0.00003°
Longitude
108.90834°
Altitude
858.619 km
Speed
7.417 km/s
True Right ascension
11h 15m 39s
True Declination
0° 00' 00"
Sunlit
Object was in daylight at epoch
Visualization orbit readout
Latitude
Unknown
Longitude
Unknown
Altitude
Unknown
Speed
Unknown
Apparent Right ascension
Unknown
Apparent Declination
Unknown
Sunlit
N/A
Visualization observer readout
Local Sidereal Time
03:27:26
Azimuth
Unknown
Elevation
Unknown
Doppler factor
Unknown
Orbital elements
Apogee altitude
863.035 km
Perigee altitude
819.989 km
Semi-major axis
7,219.649 km
Eccentricity
0.00298
Inclination
98.6578°
RAAN
168.9132°
Arg. of periapsis
238.1289°
True anomaly
121.98839°
Mean anomaly
121.6983°
Eccentric anomaly
121.8434°
Mean motion
3.53809 °/min
Orbital period
101.75 mins
BSTAR
0.00066249
Loading maneuver chart data...
Computing Atmospheric mass density...
Loading historical data...
Loading historical data...
Loading historical data...
Loading historical data...
Loading historical data...
Loading historical data...
Loading historical data...

Documentation

Showing up to 5 results
|